Miscellaneous Local Product
Issued by NWS Hastings, NE

Home | Current Version | Previous Version | Graphics & Text | Print | Product List | Glossary On
Versions: 1 2 3 4 5 6 7 8 9 10 11 12 13 14 15 16 17 18 19 20 21 22 23 24 25 26 27 28 29 30 31 32 33 34 35 36 37 38 39 40 41 42 43 44 45 46 47 48 49 50
050
AXUS43 KGID 221302
MISGRI

GID CWA HOURLY WEATHER ROUNDUP
NATIONAL WEATHER SERVICE HASTINGS NE
700 AM CST WED FEB 22 2017

NOTE: "FAIR" INDICATES FEW OR NO CLOUDS BELOW 12,000 FEET WITH NO
SIGNIFICANT WEATHER AND/OR OBSTRUCTIONS TO VISIBILITY.

...SOUTH CENTRAL NEBRASKA...

CITY           SKY/WX    TMP DP  RH WIND       PRES   REMARKS
GRAND ISLAND   FAIR      35  29  78 W8        29.68F WCI  29
HASTINGS       FAIR      38  27  64 W9        29.69R WCI  31
KEARNEY        FAIR      37  25  60 NW7       29.72R WCI  32
ORD            CLEAR     36  28  73 N7        29.69R WCI  30
YORK           FAIR      37  28  70 SW8       29.67F WCI  31
AURORA         FAIR      34  26  74 W8        29.68R WCI  27
LEXINGTON      CLEAR     40  27  59 NW13      29.75R WCI  33
HOLDREGE       FAIR      44  24  44 W10       29.72S
HEBRON         FAIR      46  33  61 SW9       29.68R

...NEBRASKA PANHANDLE...

CITY           SKY/WX    TMP DP  RH WIND       PRES   REMARKS
CHADRON        CLOUDY    43  30  60 S6        29.78S
ALLIANCE       CLEAR     37  30  75 W17       29.79F WCI  27
SCOTTSBLUFF    CLOUDY    43  27  53 W17G26    29.86R
SIDNEY         CLEAR     38  27  64 W13       29.84S WCI  30

...WESTERN AND NORTH CENTRAL NEBRASKA...

CITY           SKY/WX    TMP DP  RH WIND       PRES   REMARKS
VALENTINE      CLEAR     40  33  76 W15       29.73R WCI  32
AINSWORTH      CLEAR     38  34  82 SW13      29.71S WCI  31
ONEILL         CLEAR     43  33  68 NW7       29.68S
BROKEN BOW     CLEAR     48  32  53 NW16      29.70F
IMPERIAL       CLEAR     38  29  70 NW9       29.84R WCI  31
NORTH PLATTE   CLEAR     30  25  81 NW8       29.79R WCI  22
MCCOOK         CLEAR     45  29  53 NW15      29.79R

...EASTERN NEBRASKA...

CITY           SKY/WX    TMP DP  RH WIND       PRES   REMARKS
NORFOLK        FAIR      35  29  78 NW5       29.64S WCI  31
SO SIOUX CITY  FAIR      38  32  79 E5        29.63F WCI  34
TEKAMAH        FAIR      37  32  82 S9        29.63F WCI  30
COLUMBUS       FAIR      30  27  86 CALM      29.65S
ALBION         FAIR      35  29  79 CALM      29.66S
OMAHA EPPLEY   FAIR      45  35  68 SE12      29.67F
OFFUTT AFB     CLEAR     42  34  73 E6        29.66F
MILLARD        FAIR      45  36  71 CALM      29.67S
LINCOLN        FAIR      40  33  76 S3        29.68F
NEBRASKA CITY  FAIR      41  30  65 S3        29.68F
BEATRICE       FAIR      49  36  61 S8        29.66F
FALLS CITY     FAIR      46  34  62 S7        29.71F

...NORTHERN KANSAS...

CITY           SKY/WX    TMP DP  RH WIND       PRES   REMARKS
GOODLAND       PTCLDY    44  22  41 NW14      29.85R
HILL CITY      FAIR      40  25  55 W5        29.76R
NORTON         SUNNY     48  18  29 NW18      29.73
PHILLIPSBURG   CLEAR     45  25  45 W7        29.73R
SMITH CENTER   CLEAR     43  27  52 SW6       29.73R
HAYS             N/A     42  27  55 N5        29.77S
RUSSELL        FAIR      44  30  57 SW9       29.75S
CONCORDIA      FAIR      52  34  50 SW18      29.69F
SALINA         FAIR      53  36  52 S9        29.75S
TOPEKA         FAIR      48  34  58 S7        29.76F



USA.gov is the U.S. government's official web portal to all federal, state and local government web resources and services.